GW1625 Weather Reports


Display with metric or nautical units.
time (UTC)temp
F
wind
direction
speed
MPH
gust
MPH
rain 1hr
in
rain 24hr
in
rain mn
in
humidity
%
barometer
mb
20260506224039 50 0 0.0 2.0 0.00 0.01 0.00 78 1013.3
20260506223539 50 0 0.0 2.0 0.00 0.01 0.00 78 1013.3
20260506223049 50 325 0.0 2.0 0.00 0.01 0.00 78 1013.3
20260506222540 50 0 0.0 1.0 0.00 0.01 0.00 77 1013.2
20260506222037 50 0 0.0 2.0 0.00 0.01 0.00 78 1013.1
20260506221548 50 0 0.0 2.0 0.00 0.01 0.00 78 1013.2
20260506221038 50 0 0.0 2.0 0.00 0.01 0.00 77 1013.2
20260506220543 50 0 0.0 2.0 0.00 0.01 0.00 77 1013.1
20260506220051 51 0 0.0 2.0 0.00 0.01 0.00 76 1013.1
20260506215542 51 9 0.0 3.0 0.00 0.01 0.01 76 1013.1
20260506215041 51 26 0.0 3.0 0.00 0.01 0.01 75 1013.0
20260506214544 51 334 0.0 4.0 0.00 0.01 0.01 74 1013.0
20260506214041 51 0 0.0 4.0 0.00 0.01 0.01 75 1013.0
20260506213540 51 325 0.0 4.0 0.00 0.01 0.01 74 1013.0
20260506213109 51 51 0.0 4.0 0.00 0.01 0.01 74 1012.9
20260506212541 51 0 0.0 4.0 0.00 0.01 0.01 74 1012.8
20260506212039 51 41 0.0 4.0 0.00 0.01 0.01 75 1012.8
20260506211548 51 44 0.0 3.0 0.00 0.01 0.01 75 1012.8
20260506211041 51 34 0.0 2.0 0.00 0.01 0.01 75 1012.8
20260506210541 51 0 0.0 2.0 0.00 0.01 0.01 75 1012.8
20260506210049 51 309 0.0 2.0 0.00 0.01 0.01 75 1012.8
20260506205540 51 0 0.0 4.0 0.00 0.01 0.01 75 1012.7
20260506205041 51 0 1.0 5.0 0.00 0.01 0.01 74 1012.6
20260506204550 51 76 1.0 5.0 0.00 0.01 0.01 74 1012.6
20260506204040 51 51 1.0 3.0 0.00 0.01 0.01 75 1012.5
20260506203541 51 17 0.0 3.0 0.00 0.01 0.01 75 1012.5
20260506203058 51 0 0.0 3.0 0.00 0.01 0.01 75 1012.5
20260506202544 51 0 0.0 3.0 0.00 0.01 0.01 75 1012.5
20260506202042 51 51 0.0 2.0 0.00 0.01 0.01 75 1012.4
20260506201549 51 0 0.0 4.0 0.00 0.01 0.01 74 1012.4
20260506201044 51 0 0.0 4.0 0.00 0.01 0.01 74 1012.3
20260506200541 51 325 0.0 5.0 0.00 0.01 0.01 74 1012.3
20260506200051 51 319 1.0 6.0 0.00 0.01 0.01 73 1012.4
20260506195541 52 0 0.0 6.0 0.00 0.01 0.01 73 1012.3
20260506195045 52 39 1.0 7.0 0.00 0.01 0.01 73 1012.4
20260506194549 52 41 1.0 7.0 0.00 0.01 0.01 73 1012.3
20260506194041 52 9 1.0 6.0 0.00 0.01 0.01 72 1012.2
20260506193541 52 9 2.0 6.0 0.00 0.01 0.01 72 1012.3
20260506193043 52 9 2.0 6.0 0.00 0.01 0.01 72 1012.2
20260506192543 52 15 1.0 8.0 0.00 0.01 0.01 73 1012.2
20260506192041 52 0 1.0 8.0 0.00 0.01 0.01 74 1012.2
20260506191544 52 68 0.0 7.0 0.00 0.01 0.01 74 1012.1
20260506191043 52 338 1.0 6.0 0.00 0.01 0.01 74 1012.1
20260506190543 52 55 1.0 6.0 0.00 0.01 0.01 74 1012.0
20260506190053 52 332 1.0 8.0 0.00 0.01 0.01 74 1012.0
20260506185541 52 301 1.0 8.0 0.00 0.01 0.01 74 1011.8
20260506185042 52 309 1.0 7.0 0.00 0.01 0.01 73 1011.9
20260506184552 52 0 1.0 9.0 0.00 0.01 0.01 73 1011.9
20260506184042 52 46 3.0 9.0 0.00 0.01 0.01 72 1011.8
20260506183543 52 321 2.0 8.0 0.00 0.01 0.01 72 1011.8
20260506183058 52 338 1.0 8.0 0.00 0.01 0.01 72 1011.7
20260506182541 53 9 3.0 9.0 0.00 0.01 0.01 71 1011.7
20260506182041 53 347 3.0 11.0 0.00 0.01 0.01 71 1011.6
20260506181613 53 39 3.0 13.0 0.00 0.01 0.01 70 1011.5
20260506181041 53 34 3.0 13.0 0.00 0.01 0.01 70 1011.5
20260506180541 53 31 3.0 12.0 0.00 0.01 0.01 69 1011.4
20260506180050 54 348 4.0 12.0 0.00 0.01 0.01 69 1011.3
20260506175544 54 76 2.0 7.0 0.00 0.01 0.01 69 1011.2
20260506175046 54 131 2.0 10.0 0.00 0.01 0.01 69 1011.2
20260506174551 54 57 2.0 11.0 0.00 0.01 0.01 68 1011.0
20260506174043 54 15 3.0 11.0 0.00 0.01 0.01 68 1010.9
20260506173541 54 9 2.0 8.0 0.00 0.01 0.01 67 1010.8
20260506173059 55 34 2.0 6.0 0.00 0.01 0.01 67 1010.8
20260506172542 55 59 2.0 6.0 0.00 0.01 0.01 67 1010.7
20260506172047 55 26 1.0 10.0 0.00 0.01 0.01 67 1010.6
20260506171546 55 42 2.0 10.0 0.00 0.01 0.01 66 1010.6
20260506171041 55 265 3.0 10.0 0.00 0.01 0.01 64 1010.5
20260506170544 55 325 2.0 10.0 0.00 0.01 0.01 63 1010.5
20260506170052 56 265 3.0 10.0 0.00 0.01 0.01 62 1010.4
20260506165538 56 338 4.0 10.0 0.00 0.01 0.01 61 1010.3
20260506165041 57 38 3.0 9.0 0.00 0.01 0.01 61 1010.3
20260506164549 57 340 2.0 10.0 0.00 0.01 0.01 59 1010.2
20260506164040 58 38 3.0 10.0 0.00 0.01 0.01 61 1010.2
20260506163542 58 9 2.0 8.0 0.00 0.01 0.01 61 1010.2
20260506163047 58 32 2.0 9.0 0.00 0.01 0.01 61 1010.1
20260506162538 58 72 2.0 10.0 0.00 0.01 0.01 61 1010.1
20260506162038 58 144 2.0 10.0 0.00 0.01 0.01 64 1010.0
20260506161548 57 330 2.0 8.0 0.00 0.01 0.01 63 1010.0
20260506161040 57 36 2.0 9.0 0.00 0.01 0.01 65 1009.9
20260506160540 57 0 2.0 9.0 0.00 0.01 0.01 65 1010.0
20260506160054 58 295 3.0 9.0 0.00 0.01 0.01 66 1009.9
20260506155543 57 48 3.0 9.0 0.00 0.01 0.01 65 1009.9
20260506155042 58 275 2.0 7.0 0.00 0.01 0.01 65 1009.8
20260506154552 57 45 1.0 8.0 0.00 0.01 0.01 66 1009.9
20260506154041 58 9 2.0 8.0 0.00 0.01 0.01 65 1009.8
20260506153540 58 72 1.0 7.0 0.00 0.01 0.01 65 1009.8
20260506153105 58 334 1.0 9.0 0.00 0.01 0.01 65 1009.8
20260506152543 58 51 2.0 12.0 0.00 0.01 0.01 65 1009.7
20260506152039 58 43 4.0 12.0 0.00 0.01 0.01 63 1009.8
20260506151551 59 314 3.0 9.0 0.00 0.01 0.01 63 1009.7
20260506151042 60 74 2.0 9.0 0.00 0.01 0.01 63 1009.7
20260506150537 59 36 1.0 8.0 0.00 0.01 0.01 63 1009.6
20260506150057 59 279 1.0 6.0 0.00 0.01 0.01 63 1009.7
20260506145538 59 22 1.0 6.0 0.00 0.01 0.01 63 1009.6
20260506145040 59 9 1.0 7.0 0.00 0.01 0.01 63 1009.6
20260506144555 59 44 1.0 8.0 0.00 0.01 0.01 64 1009.6
20260506144041 59 321 2.0 8.0 0.00 0.01 0.01 63 1009.7
20260506143540 59 41 2.0 8.0 0.00 0.01 0.01 64 1009.6
20260506143044 59 51 1.0 8.0 0.00 0.01 0.01 62 1009.7
20260506142539 59 46 1.0 8.0 0.00 0.01 0.01 62 1009.7
20260506142042 59 126 1.0 8.0 0.00 0.01 0.01 64 1009.7
20260506141550 59 270 1.0 10.0 0.00 0.01 0.01 61 1009.6
20260506141042 59 68 2.0 10.0 0.00 0.01 0.01 61 1009.6
20260506140546 59 342 2.0 10.0 0.00 0.01 0.01 60 1009.6
20260506140050 59 309 1.0 8.0 0.00 0.01 0.01 61 1009.7
20260506135540 59 31 2.0 8.0 0.00 0.01 0.01 61 1009.6
20260506135042 59 73 1.0 10.0 0.00 0.01 0.01 61 1009.6
20260506134551 60 334 2.0 10.0 0.00 0.01 0.01 63 1009.5
20260506134046 59 34 3.0 9.0 0.00 0.01 0.01 60 1009.5
20260506133540 59 305 2.0 8.0 0.00 0.01 0.01 61 1009.6
20260506133051 60 273 1.0 8.0 0.00 0.01 0.01 64 1009.5
20260506132545 60 61 2.0 8.0 0.00 0.01 0.01 62 1009.5
20260506132043 60 316 2.0 7.0 0.00 0.01 0.01 63 1009.4
20260506131554 61 338 2.0 6.0 0.00 0.01 0.01 61 1009.5
20260506131040 61 93 1.0 8.0 0.00 0.01 0.01 63 1009.4
20260506130541 59 265 1.0 8.0 0.00 0.01 0.01 66 1009.4
20260506130043 58 282 1.0 6.0 0.00 0.01 0.01 65 1009.4
20260506125540 58 221 1.0 5.0 0.00 0.01 0.01 66 1009.4
20260506125040 59 304 1.0 7.0 0.00 0.01 0.01 67 1009.4
20260506124546 59 111 1.0 7.0 0.00 0.01 0.01 69 1009.2
20260506124040 58 291 1.0 4.0 0.00 0.01 0.01 69 1009.4
20260506123538 57 196 0.0 4.0 0.00 0.01 0.01 72 1009.5
20260506123048 56 16 0.0 4.0 0.00 0.01 0.01 72 1009.4
20260506122542 56 0 1.0 4.0 0.00 0.01 0.01 74 1009.4
20260506122040 56 291 0.0 5.0 0.00 0.01 0.01 73 1009.5
20260506121547 55 0 1.0 5.0 0.00 0.01 0.01 73 1009.5
20260506121042 56 309 1.0 5.0 0.00 0.01 0.01 73 1009.5
20260506120541 56 51 1.0 5.0 0.00 0.01 0.01 73 1009.5
20260506120049 56 0 1.0 7.0 0.00 0.01 0.01 73 1009.4
20260506115540 57 309 2.0 7.0 0.00 0.02 0.01 71 1009.4
20260506115040 58 38 2.0 6.0 0.00 0.02 0.01 72 1009.4
20260506114553 57 41 1.0 6.0 0.00 0.02 0.01 74 1009.3
20260506114040 56 309 1.0 7.0 0.00 0.02 0.01 74 1009.3
20260506113538 55 63 1.0 7.0 0.00 0.02 0.01 74 1009.3
20260506113050 55 56 1.0 5.0 0.00 0.02 0.01 73 1009.2
20260506112538 55 9 1.0 6.0 0.00 0.02 0.01 74 1009.3
20260506112041 55 51 1.0 6.0 0.00 0.02 0.01 74 1009.3
20260506111545 55 0 0.0 4.0 0.00 0.02 0.01 75 1009.4
20260506111040 55 80 1.0 8.0 0.00 0.02 0.01 74 1009.3
20260506110543 55 336 1.0 8.0 0.00 0.02 0.01 74 1009.3
20260506110048 55 342 1.0 6.0 0.00 0.02 0.01 74 1009.3
20260506105539 56 227 1.0 9.0 0.00 0.02 0.01 73 1009.4
20260506105042 56 80 1.0 9.0 0.00 0.02 0.01 72 1009.4
20260506104555 56 334 1.0 9.0 0.00 0.02 0.01 74 1009.4
20260506104038 56 0 1.0 9.0 0.00 0.02 0.01 75 1009.3
20260506103539 56 18 2.0 7.0 0.00 0.02 0.01 75 1009.4
20260506103052 56 286 1.0 7.0 0.00 0.02 0.01 75 1009.2
20260506102539 56 298 2.0 7.0 0.00 0.02 0.01 75 1009.3
20260506102040 56 265 1.0 6.0 0.00 0.02 0.01 77 1009.4
20260506101548 56 196 1.0 6.0 0.00 0.02 0.01 79 1009.4
20260506101041 56 51 1.0 5.0 0.00 0.02 0.01 80 1009.3
20260506100544 56 316 2.0 4.0 0.00 0.02 0.01 80 1009.3
20260506100045 56 227 1.0 5.0 0.00 0.02 0.01 82 1009.3
20260506095540 55 0 1.0 5.0 0.00 0.02 0.01 82 1009.2
20260506095040 55 323 1.0 4.0 0.00 0.02 0.01 83 1009.3
20260506094549 55 131 1.0 5.0 0.00 0.02 0.01 83 1009.3
20260506094043 55 9 1.0 5.0 0.00 0.02 0.01 84 1009.3
20260506093539 54 46 1.0 4.0 0.00 0.02 0.01 86 1009.2
20260506093049 54 9 1.0 4.0 0.00 0.02 0.01 85 1009.3
20260506092540 54 9 1.0 5.0 0.00 0.02 0.01 85 1009.2
20260506092042 53 298 1.0 6.0 0.00 0.02 0.01 86 1009.1
20260506091555 53 137 1.0 6.0 0.00 0.02 0.01 87 1009.1
20260506091044 53 311 1.0 4.0 0.00 0.02 0.01 88 1009.1
20260506090544 52 247 1.0 3.0 0.00 0.02 0.01 89 1009.1
20260506090059 52 309 1.0 4.0 0.00 0.02 0.01 90 1009.1
20260506085539 52 346 1.0 4.0 0.00 0.02 0.01 90 1009.0
20260506085040 51 336 1.0 4.0 0.00 0.02 0.01 91 1009.1
20260506084550 51 9 1.0 4.0 0.00 0.02 0.01 91 1009.1
20260506084042 51 51 1.0 4.0 0.00 0.02 0.01 91 1009.0
20260506083539 50 0 1.0 4.0 0.00 0.02 0.01 92 1009.1
20260506083050 50 9 1.0 4.0 0.00 0.02 0.01 92 1009.0
20260506082540 50 325 1.0 4.0 0.00 0.02 0.01 92 1008.9
20260506082040 50 309 1.0 3.0 0.00 0.02 0.01 92 1009.0
20260506081549 50 316 0.0 4.0 0.00 0.02 0.01 92 1008.9
20260506081041 50 38 1.0 4.0 0.00 0.02 0.01 92 1008.9
20260506080539 50 34 1.0 4.0 0.00 0.02 0.01 93 1008.9
20260506073045 49 330 1.0 5.0 0.00 0.03 0.01 92 1008.9
20260506072539 49 0 0.0 4.0 0.00 0.03 0.01 92 1008.8
20260506072042 48 0 1.0 4.0 0.00 0.03 0.01 93 1008.8
20260506071602 48 9 1.0 4.0 0.00 0.02 0.00 92 1008.8
20260506071041 48 26 1.0 4.0 0.00 0.02 0.00 92 1008.8
20260506070541 48 0 1.0 4.0 0.00 0.02 0.00 92 1008.8
20260506062040 48 93 1.0 7.0 0.00 0.02 0.00 91 1008.8
20260506061553 48 0 1.0 7.0 0.00 0.02 0.00 91 1008.6
20260506061042 48 344 1.0 7.0 0.00 0.02 0.00 91 1008.6
20260506060540 48 273 0.0 7.0 0.00 0.02 0.00 90 1008.6
20260506051040 48 212 1.0 6.0 0.00 0.02 0.00 89 1008.5
20260506050539 48 120 0.0 4.0 0.00 0.02 0.00 89 1008.5
20260506045038 48 319 1.0 7.0 0.00 0.02 0.00 89 1008.5
20260506044543 48 341 1.0 6.0 0.00 0.02 0.00 88 1008.5
20260506044040 48 34 1.0 5.0 0.00 0.02 0.00 88 1008.4
20260506043540 48 317 2.0 6.0 0.00 0.02 0.00 88 1008.4
20260506043046 48 313 1.0 7.0 0.00 0.02 0.00 88 1008.5
20260506042541 48 31 1.0 7.0 0.00 0.02 0.00 87 1008.4
20260506042039 48 51 1.0 5.0 0.00 0.02 0.00 87 1008.5
20260506041547 48 24 0.0 6.0 0.00 0.02 0.00 87 1008.3
20260506041037 48 0 1.0 11.0 0.00 0.02 0.00 87 1008.4
20260506040538 48 317 1.0 11.0 0.00 0.02 0.00 87 1008.4
20260506040048 48 105 0.0 3.0 0.00 0.02 0.00 87 1008.3
20260506035539 48 44 0.0 4.0 0.00 0.03 0.00 87 1008.3
20260506035044 48 309 0.0 4.0 0.00 0.03 0.00 87 1008.3
20260506034559 48 344 0.0 6.0 0.00 0.03 0.00 87 1008.4
20260506034041 48 73 1.0 6.0 0.00 0.03 0.00 87 1008.4
20260506033537 48 309 1.0 6.0 0.00 0.03 0.00 86 1008.5
20260506033047 48 0 1.0 6.0 0.00 0.03 0.00 86 1008.5
20260506032544 48 232 1.0 6.0 0.00 0.03 0.00 86 1008.4
20260506032039 48 0 1.0 6.0 0.00 0.03 0.00 86 1008.5
20260506031548 48 51 2.0 6.0 0.00 0.03 0.00 86 1008.5
20260506031039 48 312 1.0 4.0 0.00 0.03 0.00 86 1008.5
20260506030542 49 120 1.0 3.0 0.00 0.03 0.00 85 1008.6
20260506030048 49 93 1.0 4.0 0.00 0.03 0.00 85 1008.6
20260506025539 49 316 1.0 4.0 0.00 0.05 0.00 85 1008.6
20260506025038 49 0 1.0 4.0 0.00 0.05 0.00 85 1008.7
20260506024557 49 51 1.0 5.0 0.00 0.05 0.00 85 1008.7
20260506024041 49 0 1.0 5.0 0.00 0.05 0.00 85 1008.6
20260506023539 49 0 1.0 5.0 0.00 0.05 0.00 85 1008.7
20260506023043 49 19 0.0 5.0 0.00 0.05 0.00 85 1008.8
20260506022540 49 120 1.0 4.0 0.00 0.05 0.00 85 1008.7
20260506022042 49 0 1.0 5.0 0.00 0.05 0.00 85 1008.8
20260506021543 49 212 1.0 5.0 0.00 0.05 0.00 85 1008.8
20260506021042 49 0 1.0 4.0 0.00 0.05 0.00 85 1008.8
20260506020538 49 325 0.0 5.0 0.00 0.05 0.00 85 1008.9
20260506020049 49 309 0.0 5.0 0.00 0.05 0.00 85 1008.8
20260506015542 49 9 0.0 6.0 0.00 0.05 0.00 85 1008.8
20260506015040 49 309 1.0 6.0 0.00 0.05 0.00 85 1008.9
20260506014551 49 48 1.0 6.0 0.00 0.05 0.00 85 1008.8
20260506014043 49 9 1.0 9.0 0.00 0.05 0.00 85 1008.8
20260506013544 49 44 1.0 9.0 0.00 0.05 0.00 86 1008.8
20260506013102 49 34 2.0 9.0 0.00 0.05 0.00 86 1008.9
20260506012539 49 317 1.0 4.0 0.00 0.05 0.00 86 1008.9
20260506012038 49 22 1.0 6.0 0.00 0.05 0.00 85 1008.9
20260506011544 49 0 0.0 7.0 0.00 0.05 0.00 85 1009.0
20260506011040 49 338 1.0 7.0 0.00 0.05 0.00 86 1009.0
20260506010542 49 93 1.0 4.0 0.00 0.05 0.00 86 1009.0
20260506010044 49 309 1.0 6.0 0.00 0.05 0.00 86 1009.0
20260506005541 49 325 1.0 6.0 0.00 0.05 0.00 86 1009.0
20260506005038 49 9 1.0 6.0 0.00 0.05 0.00 86 1009.0
20260506004549 49 15 1.0 4.0 0.00 0.05 0.00 86 1009.1
20260506004039 49 294 1.0 4.0 0.00 0.05 0.00 86 1009.2
20260506003538 49 0 0.0 4.0 0.00 0.05 0.00 87 1009.2
20260506003040 49 309 1.0 4.0 0.00 0.05 0.00 87 1009.2
20260506002539 49 61 0.0 3.0 0.00 0.05 0.00 87 1009.3
20260506002042 49 0 1.0 3.0 0.00 0.05 0.00 87 1009.4
20260506001547 49 334 1.0 4.0 0.00 0.05 0.00 87 1009.3
20260506001041 49 36 1.0 4.0 0.00 0.05 0.00 87 1009.3
20260506000541 49 61 0.0 4.0 0.00 0.05 0.00 87 1009.4
20260506000051 49 65 1.0 3.0 0.00 0.05 0.00 87 1009.4
20260505235541 49 9 1.0 5.0 0.00 0.16 0.00 87 1009.4
20260505235039 49 0 1.0 5.0 0.00 0.16 0.00 87 1009.6
20260505234547 49 61 1.0 5.0 0.00 0.16 0.00 87 1009.5
20260505234038 49 51 1.0 4.0 0.00 0.16 0.00 87 1009.5
20260505233541 49 76 0.0 3.0 0.00 0.16 0.00 87 1009.5
20260505233047 49 93 0.0 7.0 0.00 0.16 0.00 87 1009.5
20260505232541 50 30 1.0 7.0 0.00 0.16 0.00 87 1009.5
20260505232043 50 309 1.0 5.0 0.00 0.16 0.00 87 1009.5
20260505231551 50 325 1.0 5.0 0.00 0.16 0.00 87 1009.5
20260505231043 50 265 1.0 6.0 0.00 0.16 0.00 87 1009.6
20260505230539 50 291 1.0 6.0 0.00 0.16 0.00 87 1009.6
20260505230056 50 9 1.0 5.0 0.00 0.16 0.00 87 1009.6
20260505225539 50 30 1.0 5.0 0.00 0.43 0.00 87 1009.7
20260505225040 50 34 0.0 4.0 0.00 0.43 0.00 87 1009.7
20260505224549 50 0 0.0 5.0 0.00 0.43 0.00 87 1009.7